Location: Waco, TX
(31.5480°N, 97.1670°W)
Time: 06:15:46
(UTC-05:00)

ISS - Pass Details

Date: 02 October 2022
Orbit: 414 x 417 km, 51.6° (Epoch: 01 October)

Event Time Altitude Azimuth Distance (km) Brightness Sun altitude
Rises 12:20:51 0° 184° (S) 2,331 0.5 52.2°
Reaches altitude 10° 12:23:46 10° 156° (SSE) 1,475 -0.1 52.4°
Maximum altitude 12:25:25 13° 126° (SE) 1,300 -0.5 52.5°
Drops below altitude 10° 12:27:04 10° 96° (E) 1,480 -0.6 52.7°
Sets 12:30:00 0° 68° (ENE) 2,348 0.0 52.9°
